This demonstration page uses our WeatherBlox Daily Observations layout. Learn more.

Left ArrowRight Arrow

Hourly Observations for January 8, 2015

Temp ( °F °C ) Dew Point ( °F °C ) Humidity (%) Winds ( mph kmh ) Pressure ( in mb ) Visibility ( mi km ) Precip ( " mm )
12:52 am 00:52 Cloudy 3 -16.1 -6 -21.1 66 66 S 13 20 30.64 1038 10 16 0.00 0.00
1:52 am 01:52 Mostly Cloudy 2 -16.7 -5 -20.6 72 72 SSE 15 24 30.58 1036 10 16 0.00 0.00
2:52 am 02:52 Mostly Cloudy 5 -15 -4 -20 66 66 S 17 28 30.52 1034 10 16 0.00 0.00
3:52 am 03:52 Mostly Cloudy 5 -15 -3 -19.4 69 69 SSE 18 30 30.42 1030 10 16 0.00 0.00
4:52 am 04:52 Mostly Cloudy 8 -13.3 -3 -19.4 60 60 S 18 30 30.33 1027 10 16 0.00 0.00
5:52 am 05:52 Cloudy 9 -12.8 -1 -18.3 64 64 S 22 35 30.23 1024 10 16 0.00 0.00
6:52 am 06:52 Cloudy 10 -12.2 0 -17.8 63 63 S 28 44 30.11 1020 10 16 0.00 0.00
7:52 am 07:52 Mostly Cloudy 12 -11.1 1 -17.2 61 61 S 20 31 30.12 1020 10 16 0.00 0.00
8:52 am 08:52 Mostly Cloudy 15 -9.4 4 -15.6 61 61 SSW 22 35 30.10 1019 10 16 0.00 0.00
9:52 am 09:52 Mostly Cloudy 17 -8.3 6 -14.4 62 62 SSW 18 30 30.08 1019 10 16 0.00 0.00
10:52 am 10:52 Mostly Cloudy 19 -7.2 8 -13.3 62 62 SW 12 19 30.04 1017 10 16 0.00 0.00
11:52 am 11:52 Partly Cloudy 23 -5 11 -11.7 60 60 SW 16 26 30.00 1016 10 16 0.00 0.00
12:52 pm 12:52 Cloudy 27 -2.8 15 -9.4 61 61 W 12 19 29.98 1015 10 16 0.00 0.00
1:26 pm 13:26 Cloudy 30 -1 19 -7 64 64 WNW 21 33 30.00 1016 10 16 0.00 0.00
1:52 pm 13:52 Cloudy 30 -1.1 20 -6.7 66 66 NW 32 52 30.00 1016 10 16 0.00 0.00
2:52 pm 14:52 Cloudy 29 -1.7 19 -7.2 66 66 NW 25 41 30.05 1018 10 16 0.00 0.00
3:41 pm 15:41 Mostly Cloudy 30 -1.1 19 -7.2 64 64 NW 31 50 30.09 1019 10 16 0.00 0.03
3:52 pm 15:52 Mostly Cloudy 30 -1 18 -8 59 59 NW 37 59 30.12 1020 10 16 0.00 0.00
4:52 pm 16:52 Mostly Cloudy with Light Snow 23 -5 15 -9.4 72 72 NW 28 44 30.17 1022 6 10 0.00 0.03
5:52 pm 17:52 Cloudy 20 -6.7 10 -12.2 65 65 NW 30 48 30.25 1024 10 16 0.00 0.03
6:52 pm 18:52 Cloudy 19 -7.2 9 -12.8 65 65 NNW 25 41 30.31 1027 10 16 0.00 0.00
7:08 pm 19:08 Cloudy 18 -8 9 -13 68 68 NNW 23 37 30.36 1028 10 16 0.00 0.00
7:52 pm 19:52 Mostly Cloudy 17 -8.3 8 -13.3 68 68 NNW 22 35 30.35 1028 10 16 0.00 0.00
8:52 pm 20:52 Mostly Cloudy 16 -8.9 8 -13.3 71 71 NW 23 37 30.39 1029 10 16 0.00 0.00
9:52 pm 21:52 Cloudy 16 -8.9 7 -13.9 67 67 NW 21 33 30.41 1030 10 16 0.00 0.00
10:46 pm 22:46 Partly Cloudy 16 -9 5 -15 62 62 NW 25 41 30.48 1032 10 16 0.00 0.00
10:52 pm 22:52 Partly Cloudy 15 -9.4 5 -15 64 64 NW 29 46 30.43 1031 10 16 0.00 0.00
11:40 pm 23:40 Mostly Cloudy 14 -10 5 -15 67 67 NW 28 44 30.48 1032 10 16 0.00 0.00
11:48 pm 23:48 Partly Cloudy 14 -10 3 -16 62 62 NW 25 41 30.48 1032 10 16 0.00 0.00
11:52 pm 23:52 Partly Cloudy 14 -10 3 -16.1 61 61 NW 23 37 30.45 1031 10 16 0.00 0.00

Powered by AerisWeather